星链-35239(STARLINK-35239)

导读

STARLINK-35239是美国 SpaceX 星链互联网星座的成员卫星,由美国在2025年9月18日发射升空,旨在为全球提供低延迟、高速率的宽带互联网覆盖。该卫星运行在近地轨道,依托星链组网架构,服务偏远地区网络接入、移动场景网络连接等需求,是美国大规模低轨卫星互联网部署的组成部分。

Basic Information
目录编号:
65623
目录名称:
STARLINK-35239
国际标识:
2025-210B
轨道中心:
EARTH
卫星名称:
星链-35239
卫星全名:
星链-35239(STARLINK-35239)
卫星状态:
在轨 (已飞行268 天)
发射日期:
2025-09-18 UTC
国别 :
美国 (US)
星等 :
--
Orbit Information
数据来源 国际轨道数据 AOE轨道数据
星历时间 2026-06-12T21:58:07+0800
1天前
查看轨道信息
2026-06-10T05:00:00+0800
3天前
查看轨道信息
半长轴 6840.767km 6840.743km
偏心率 0.0001224 0.0001306
轨道倾角 53.159° 53.157°
近地点辐角 75.171° 64.566°
升交点赤经 224.608° 237.266°
平近点角 284.942° 94.105°
近地点 461.792km 461.712km
远地点 463.468km 463.5km
周期 93.846分钟 93.846分钟
每日圈数 15.344249 15.344329
Detailed Information
固有亮度:
5
最大亮度:
2.5
卫星平台:
Starlink V1.0
覆盖范围:
全球
运营商:
太空探索技术公司
运营商所在国:
美国
制造商(研发单位):
太空探索技术公司
制造商所在国:
美国
使用方式:
暂无
Satellite Introduction
Starlink 计划是 SpaceX 推出的全球卫星互联网项目,通过发射低轨道卫星,为全球尤其是偏远地区提供高速、低延迟的互联网服务。自 2019 年起,Starlink 已部署数千颗卫星,旨在缩小全球数字鸿沟,推动互联网普及。该项目还为军事、航空等行业提供通信支持,带来广泛经济效益。
2D Orbit Map
3D Orbit Map
Orbit Altitude Analysis Chart
Orbit Inclination Analysis Chart
Orbit Comprehensive Analysis Chart
View Comprehensive Chart